Date String (YYYY-MM-DD hh:mm:ss) UTC,Instrument flags,Ambient pressure (hPa),Sample flow (lpm),Bypass flow (lpm),Sample temperature (°C),Ambient temperature (°C),ASC tube jacket temperature (°C),LED temperature (°C),Box temperature (°C),Sample RH (%),Span deviation,Mass concentration (μg/m³),Mass concentration (μg/m³),Mass concentration (μg/m³)
DateTimeUTC,F1_M11,P_M11,Q1_M11,Q2_M11,T1_M11,T2_M11,T3_M11,T4_M11,T5_M11,U1_M11,ZSPAN_M11,X0_M11,X2_M11,X1_M11
2022-01-27 19:00:00,,0835.3,5.00,0.00,22.6,23.1,00.0,31.6,24.5,11.3,0000.0,0002.51,0001.06,0000.86
2022-01-27 19:01:00,,0835.2,4.99,0.00,22.8,23.4,00.0,31.6,24.7,11.2,0000.0,0001.70,0001.06,0000.87
2022-01-27 19:02:00,,0835.2,5.00,0.00,22.8,23.1,00.0,31.6,24.7,11.2,0000.0,0001.80,0001.10,0000.88
2022-01-27 19:03:00,,0835.2,4.99,0.00,22.8,22.9,00.0,31.6,24.6,11.2,0000.0,0001.84,0001.12,0000.89
2022-01-27 19:04:00,,0835.2,5.01,0.00,22.8,22.7,00.0,31.6,24.6,11.2,0000.0,0001.87,0001.13,0000.89
2022-01-27 19:05:00,,0835.2,5.00,0.00,22.7,22.5,00.0,31.6,24.5,11.2,0000.0,0001.80,0001.12,0000.90
2022-01-27 19:06:00,,0835.2,4.99,0.00,22.7,22.4,00.0,31.6,24.4,11.1,0000.0,0001.75,0001.11,0000.90
2022-01-27 19:07:00,,0835.2,5.00,0.00,22.7,22.3,00.0,31.6,24.4,11.2,0000.0,0001.67,0001.10,0000.91
2022-01-27 19:08:00,,0835.2,5.00,0.00,22.6,22.2,00.0,31.6,24.3,11.3,0000.0,0001.73,0001.08,0000.91
2022-01-27 19:09:00,,0835.2,5.00,0.00,22.6,22.1,00.0,31.6,24.3,11.2,0000.0,0001.72,0001.08,0000.92
2022-01-27 19:10:00,,0835.3,5.01,0.00,22.6,22.0,00.0,31.6,24.2,11.3,0000.0,0001.74,0001.10,0000.93
2022-01-27 19:11:00,,0835.2,5.00,0.00,22.6,21.9,00.0,31.6,24.2,11.2,0000.0,0001.78,0001.12,0000.94
2022-01-27 19:12:00,,0835.3,5.00,0.00,22.5,21.9,00.0,31.5,24.2,11.3,0000.0,0001.75,0001.11,0000.93
2022-01-27 19:13:00,,0835.2,5.00,0.00,22.5,21.9,00.0,31.5,24.2,11.3,0000.0,0001.64,0001.08,0000.92
2022-01-27 19:14:00,,0835.2,4.98,0.00,22.5,21.8,00.0,31.5,24.1,11.3,0000.0,0001.62,0001.07,0000.92
2022-01-27 19:15:00,,0835.2,5.00,0.00,22.5,21.8,00.0,31.5,24.1,11.3,0000.0,0001.56,0001.05,0000.92
2022-01-27 19:16:00,,0835.1,5.00,0.00,22.4,21.8,00.0,31.5,24.1,11.4,0000.0,0001.56,0001.05,0000.92
2022-01-27 19:17:00,,0835.2,5.00,0.00,22.4,21.7,00.0,31.5,24.1,11.4,0000.0,0001.56,0001.05,0000.92
2022-01-27 19:18:00,,0835.2,5.00,0.00,22.4,21.7,00.0,31.4,24.1,11.4,0000.0,0001.55,0001.05,0000.92
2022-01-27 19:19:00,,0835.2,5.01,0.00,22.4,22.0,00.0,31.4,24.2,11.3,0000.0,0001.64,0001.10,0000.93
2022-01-27 19:20:00,,0835.2,5.01,0.00,22.5,22.7,00.0,31.5,24.4,11.2,0000.0,0001.65,0001.11,0000.94
2022-01-27 19:21:00,,0835.2,4.98,0.00,22.7,23.4,00.0,31.5,24.6,11.1,0000.0,0001.70,0001.12,0000.93
2022-01-27 19:22:00,,0835.1,5.00,0.00,22.7,23.2,00.0,31.5,24.7,11.0,0000.0,0001.67,0001.11,0000.93
2022-01-27 19:23:00,,0835.1,4.99,0.00,22.8,23.0,00.0,31.6,24.6,11.0,0000.0,0001.72,0001.12,0000.93
2022-01-27 19:24:00,,0835.1,4.99,0.00,22.8,22.8,00.0,31.6,24.6,10.9,0000.0,0001.76,0001.14,0000.94
2022-01-27 19:25:00,,0835.1,5.01,0.00,22.8,22.6,00.0,31.6,24.6,11.0,0000.0,0001.79,0001.15,0000.95
2022-01-27 19:26:00,,0835.1,5.01,0.00,22.7,22.4,00.0,31.6,24.5,11.0,0000.0,0001.78,0001.15,0000.96
2022-01-27 19:27:00,,0835.0,5.01,0.00,22.7,22.3,00.0,31.6,24.5,10.9,0000.0,0001.72,0001.13,0000.95
2022-01-27 19:28:00,,0835.1,4.98,0.00,22.7,22.2,00.0,31.6,24.5,11.0,0000.0,0001.74,0001.13,0000.96
2022-01-27 19:29:00,,0835.1,5.00,0.00,22.7,22.2,00.0,31.6,24.5,10.8,0000.0,0001.76,0001.13,0000.95
2022-01-27 19:30:00,,0835.1,5.00,0.00,22.7,22.1,00.0,31.6,24.5,10.8,0000.0,0001.61,0001.10,0000.95
2022-01-27 19:31:00,,0835.0,5.00,0.00,22.7,22.1,00.0,31.6,24.4,10.8,0000.0,0001.58,0001.09,0000.95
2022-01-27 19:32:00,,0835.0,5.00,0.00,22.7,22.1,00.0,31.6,24.4,10.8,0000.0,0001.97,0001.07,0000.95
2022-01-27 19:33:00,,0835.0,5.01,0.00,22.7,22.0,00.0,31.6,24.4,11.0,0000.0,0002.10,0001.08,0000.96
2022-01-27 19:34:00,,0835.0,5.00,0.00,22.7,22.0,00.0,31.6,24.4,11.0,0000.0,0002.09,0001.08,0000.96
2022-01-27 19:35:00,,0835.0,5.00,0.00,22.7,21.9,00.0,31.6,24.4,10.9,0000.0,0002.13,0001.10,0000.97
2022-01-27 19:36:00,,0835.1,5.00,0.00,22.7,21.9,00.0,31.6,24.4,10.9,0000.0,0002.15,0001.11,0000.97
2022-01-27 19:37:00,,0835.0,5.00,0.00,22.6,21.9,00.0,31.6,24.4,10.8,0000.0,0002.14,0001.11,0000.97
2022-01-27 19:38:00,,0835.0,5.00,0.00,22.6,21.9,00.0,31.6,24.4,10.9,0000.0,0002.15,0001.12,0000.98
2022-01-27 19:39:00,,0835.0,5.00,0.00,22.6,21.9,00.0,31.6,24.4,10.9,0000.0,0002.13,0001.11,0000.98
2022-01-27 19:40:00,,0835.0,4.98,0.00,22.6,21.9,00.0,31.5,24.3,10.9,0000.0,0002.08,0001.10,0000.98
2022-01-27 19:41:00,,0835.1,5.01,0.00,22.6,21.9,00.0,31.5,24.3,10.9,0000.0,0002.47,0001.15,0000.99
2022-01-27 19:42:00,,0835.0,5.00,0.00,22.6,21.9,00.0,31.5,24.3,10.8,0000.0,0002.60,0001.16,0000.99
2022-01-27 19:43:00,,0835.0,5.00,0.00,22.6,21.9,00.0,31.5,24.4,10.9,0000.0,0002.46,0001.19,0001.00
2022-01-27 19:44:00,,0835.0,5.00,0.00,22.6,21.8,00.0,31.5,24.4,10.8,0000.0,0002.19,0001.21,0001.00
2022-01-27 19:45:00,,0835.0,5.00,0.00,22.6,21.9,00.0,31.5,24.3,10.6,0000.0,0002.19,0001.20,0000.99
2022-01-27 19:46:00,,0834.9,5.01,0.00,22.6,21.9,00.0,31.5,24.3,10.7,0000.0,0002.21,0001.19,0000.98
2022-01-27 19:47:00,,0835.0,5.00,0.00,22.6,21.9,00.0,31.5,24.3,10.9,0000.0,0002.21,0001.20,0000.98
2022-01-27 19:48:00,,0835.0,4.98,0.00,22.6,21.9,00.0,31.5,24.3,10.9,0000.0,0002.26,0001.23,0000.99
2022-01-27 19:49:00,,0834.9,5.00,0.00,22.6,21.9,00.0,31.5,24.3,10.9,0000.0,0002.32,0001.26,0001.00
2022-01-27 19:50:00,,0835.0,5.00,0.00,22.6,21.9,00.0,31.5,24.3,10.8,0000.0,0002.39,0001.29,0001.01
2022-01-27 19:51:00,,0835.0,5.00,0.00,22.6,21.9,00.0,31.5,24.3,10.7,0000.0,0002.49,0001.32,0001.02
2022-01-27 19:52:00,,0835.0,5.01,0.00,22.6,21.9,00.0,31.5,24.3,10.6,0000.0,0002.49,0001.35,0001.02
2022-01-27 19:53:00,,0835.1,5.00,0.00,22.6,21.9,00.0,31.5,24.3,10.6,0000.0,0002.41,0001.35,0001.01
2022-01-27 19:54:00,,0835.0,4.99,0.00,22.6,21.9,00.0,31.5,24.3,10.6,0000.0,0002.34,0001.33,0001.01
2022-01-27 19:55:00,,0835.1,5.01,0.00,22.6,21.9,00.0,31.5,24.3,10.5,0000.0,0002.36,0001.35,0001.02
2022-01-27 19:56:00,,0835.0,5.01,0.00,22.6,21.9,00.0,31.5,24.3,10.5,0000.0,0002.33,0001.35,0001.03
2022-01-27 19:57:00,,0835.1,5.00,0.00,22.6,21.9,00.0,31.5,24.3,10.5,0000.0,0002.35,0001.38,0001.05
2022-01-27 19:58:00,,0835.0,4.98,0.00,22.6,21.9,00.0,31.5,24.3,10.6,0000.0,0002.35,0001.39,0001.05
2022-01-27 19:59:00,,0835.0,5.00,0.00,22.6,21.9,00.0,31.5,24.3,10.6,0000.0,0002.25,0001.35,0001.05
